Tracking 29892 objects as of 21-Nov-2024
HD Live streaming from Space Station
objects crossing your sky now

FENGYUN 1C DEB

Track FENGYUN 1C DEB now!
10-day predictions


NORAD ID: 30521
Int'l Code: 1999-025AJK
Perigee: 616.7 km
Apogee: 821.0 km
Inclination: 99.0 °
Period: 99.0 minutes
Semi major axis: 7089 km
RCS: 0.0098 m2 (small)
Launch date: May 10, 1999
Source: People's Republic of China (PRC)
Launch site: Taiyaun Space Center, China (TSC)

Note: This is SATELLITE DEBRIS
Your satellite tracking list
Your tracking list is empty




NASA's NSSDC Master Catalog

Two Line Element Set (TLE):
1 30521U 99025AJK 24325.25373332  .00003881  00000-0  80891-3 0  9999
2 30521  98.9593  65.1926 0144117 339.8342  19.7194 14.54280754939412
Source of the keplerian elements: AFSPC